一网星座-0458星 (ONEWEB-0458 )

导读 | 星芒AI

ONEWE-0458 是 OneWeb 卫星通信星座计划中的一颗低轨通信卫星,旨在为全球提供高速互联网服务。该卫星由空中客车防务与航天公司制造,采用统一的卫星平台,具备高容量和高效率的通信能力。它运行在约 1200 公里的近地轨道,与其他 OneWeb 卫星协同工作,构建全球覆盖的宽带网络。该星座特别关注偏远和农村地区,以弥合数字鸿沟。ONEWE-0458 的发射和运行是 OneWeb 恢复和发展其全球卫星互联网服务的重要一步。

基本信息
目录编号:
51648
目录名称:
ONEWEB-0458
国际标识:
2022-012AC
轨道中心:
EARTH
卫星名称:
一网星座-0458星
卫星全名:
一网星座-0458星 (ONEWEB-0458 )
卫星状态:
在轨 (已飞行1404 天)
发射日期:
2022-02-10 UTC
国别 :
英国 (GB)
星等 :
--
轨道信息
数据来源 国际轨道数据 AOE轨道数据
星历时间 2025-12-15T02:51:15+0800
1天前
查看轨道信息
2025-12-11T03:00:00+0800
5天前
查看轨道信息
半长轴 7599.866km 7599.848km
偏心率 0.000185 0.000184
轨道倾角 87.881° 87.881°
近地点辐角 108.221° 108.662°
升交点赤经 73.013° 73.808°
平近点角 251.912° 141.506°
近地点 1220.325km 1220.314km
远地点 1223.137km 1223.112km
周期 109.893分钟 109.892分钟
每日圈数 13.1037 13.103745
详细信息
平衡模式:
三轴稳定
覆盖范围:
全球
运营商:
一网卫星公司
运营商所在国:
英国
制造商(研发单位):
一网卫星公司
制造商所在国:
英国
使用方式:
暂无
卫星简介
OneWeb卫星网络由648颗重约125公斤的微型卫星组成,运行在1200公里的轨道上。 每颗卫星都能够提供至少每秒8千兆位的吞吐量,以使用其高吞吐量的Ku频段有效载荷为家庭和移动平台提供互联网接入。该卫星仍在工作。
2D轨道图
3D轨道图
轨道高度分析图
轨道倾角分析图
轨道综合分析图
查看轨道综合分析图